AEE1656 LATI-LGSA

Flight info

Callsign AEE1656
Flight time 1h 5m
Altitude 35000
Route ELBAK DCT DIMIS UL604 TRL UJ65 SOKRI
Aircraft A321/M-SDE3FGHIRWY/LB1

Departure

Time 2026-05-08 18:10
Airport Tirana International Airport Mother Teresa (LATI)

Arrival

Time 2026-05-08 19:16
Airport Chania International Airport (LGSA)
Time Latitude Longitude Altitude Speed Heading
2026-05-08 17:16 41.42183 19.71481 132 ft 0 kts 265°
2026-05-08 17:18 41.42067 19.71490 132 ft 0 kts 265°
2026-05-08 17:59 41.42068 19.71504 132 ft 4 kts 261°
2026-05-08 17:59 41.42070 19.71537 132 ft 4 kts 294°
2026-05-08 17:59 41.42054 19.71559 132 ft 4 kts 345°
2026-05-08 18:00 41.42037 19.71563 132 ft 1 kts 354°
2026-05-08 18:00 41.42034 19.71563 132 ft 0 kts 354°
2026-05-08 18:01 41.42035 19.71563 132 ft 0 kts 354°
2026-05-08 18:01 41.42041 19.71563 132 ft 2 kts 354°
2026-05-08 18:02 41.42072 19.71560 132 ft 5 kts 357°
2026-05-08 18:02 41.42089 19.71559 132 ft 0 kts 357°
2026-05-08 18:03 41.42090 19.71558 132 ft 1 kts 357°
2026-05-08 18:04 41.42126 19.71556 132 ft 7 kts 357°
2026-05-08 18:04 41.42180 19.71553 132 ft 8 kts 357°
2026-05-08 18:04 41.42242 19.71549 132 ft 9 kts 357°
2026-05-08 18:04 41.42312 19.71544 132 ft 11 kts 357°
2026-05-08 18:05 41.42388 19.71537 132 ft 11 kts 354°
2026-05-08 18:05 41.42460 19.71528 132 ft 10 kts 354°
2026-05-08 18:05 41.42529 19.71515 132 ft 10 kts 352°
2026-05-08 18:05 41.42603 19.71500 132 ft 11 kts 350°
2026-05-08 18:06 41.42637 19.71497 132 ft 4 kts
2026-05-08 18:06 41.42670 19.71502 132 ft 5 kts
2026-05-08 18:06 41.42676 19.71523 132 ft 3 kts 95°
2026-05-08 18:06 41.42675 19.71553 132 ft 4 kts 89°
2026-05-08 18:07 41.42677 19.71593 131 ft 5 kts 86°
2026-05-08 18:07 41.42680 19.71644 126 ft 6 kts 84°
2026-05-08 18:07 41.42684 19.71686 129 ft 7 kts 83°
2026-05-08 18:07 41.42688 19.71738 130 ft 2 kts 83°
2026-05-08 18:08 41.42691 19.71767 129 ft 5 kts 83°
2026-05-08 18:08 41.42694 19.71835 126 ft 10 kts 91°
2026-05-08 18:08 41.42648 19.71895 125 ft 11 kts 172°
2026-05-08 18:08 41.42626 19.71899 125 ft 0 kts 172°
2026-05-08 18:09 41.42624 19.71900 125 ft 0 kts 172°
2026-05-08 18:10 41.42429 19.71934 125 ft 73 kts 173°
2026-05-08 18:10 41.41650 19.72028 128 ft 149 kts 174°
2026-05-08 18:10 41.40444 19.72149 462 ft 188 kts 178°
2026-05-08 18:10 41.39133 19.72251 1364 ft 188 kts 174°
2026-05-08 18:11 41.37826 19.72436 2308 ft 195 kts 174°
2026-05-08 18:11 41.36406 19.72654 2900 ft 215 kts 173°
2026-05-08 18:11 41.34886 19.72884 3639 ft 223 kts 174°
2026-05-08 18:11 41.33328 19.73111 4471 ft 227 kts 174°
2026-05-08 18:12 41.31705 19.73339 5051 ft 245 kts 174°
2026-05-08 18:12 41.29983 19.73575 5560 ft 252 kts 174°
2026-05-08 18:12 41.28208 19.73814 5968 ft 265 kts 174°
2026-05-08 18:12 41.26344 19.74110 6560 ft 273 kts 167°
2026-05-08 18:13 41.24567 19.75030 7249 ft 277 kts 152°
2026-05-08 18:13 41.22921 19.76388 7964 ft 280 kts 146°
2026-05-08 18:13 41.21326 19.77903 8657 ft 284 kts 144°
2026-05-08 18:13 41.19723 19.79459 9338 ft 287 kts 146°
2026-05-08 18:14 41.18088 19.81006 9999 ft 291 kts 147°
2026-05-08 18:14 41.16383 19.82557 10349 ft 307 kts 148°
2026-05-08 18:14 41.14536 19.84182 10485 ft 330 kts 149°
2026-05-08 18:14 41.12563 19.85885 10773 ft 344 kts 149°
2026-05-08 18:15 41.10537 19.87622 11307 ft 350 kts 150°
2026-05-08 18:15 41.08480 19.89376 11871 ft 354 kts 151°
2026-05-08 18:15 41.06396 19.91150 12423 ft 358 kts 151°
2026-05-08 18:15 41.04317 19.92918 12964 ft 362 kts 151°
2026-05-08 18:16 41.02189 19.94725 13487 ft 365 kts 151°
2026-05-08 18:16 41.00038 19.96550 14034 ft 368 kts 151°
2026-05-08 18:16 40.97872 19.98388 14570 ft 372 kts 151°
2026-05-08 18:16 40.95689 20.00244 15087 ft 375 kts 151°
2026-05-08 18:17 40.93508 20.02097 15596 ft 379 kts 151°
2026-05-08 18:17 40.91258 20.04001 16128 ft 382 kts 151°
2026-05-08 18:17 40.89004 20.05908 16592 ft 386 kts 150°
2026-05-08 18:17 40.86731 20.07819 17039 ft 388 kts 152°
2026-05-08 18:18 40.84335 20.09471 17494 ft 390 kts 157°
2026-05-08 18:18 40.81893 20.11071 17914 ft 393 kts 157°
2026-05-08 18:18 40.79431 20.12685 18354 ft 396 kts 157°
2026-05-08 18:18 40.76956 20.14310 18798 ft 399 kts 156°
2026-05-08 18:19 40.74474 20.15938 19224 ft 403 kts 157°
2026-05-08 18:19 40.71939 20.17600 19642 ft 406 kts 156°
2026-05-08 18:19 40.69397 20.19261 20059 ft 409 kts 157°
2026-05-08 18:19 40.66842 20.20926 20453 ft 411 kts 157°
2026-05-08 18:20 40.64272 20.22603 20828 ft 414 kts 156°
2026-05-08 18:20 40.61678 20.24294 21189 ft 417 kts 156°
2026-05-08 18:20 40.59075 20.25991 21571 ft 419 kts 156°
2026-05-08 18:20 40.56454 20.27696 21915 ft 422 kts 156°
2026-05-08 18:21 40.53815 20.29412 22264 ft 425 kts 157°
2026-05-08 18:21 40.51162 20.31136 22610 ft 427 kts 156°
2026-05-08 18:21 40.48485 20.32871 22935 ft 430 kts 157°
2026-05-08 18:21 40.45789 20.34621 23266 ft 433 kts 156°
2026-05-08 18:22 40.43080 20.36379 23608 ft 436 kts 156°
2026-05-08 18:22 40.40355 20.38141 23976 ft 438 kts 156°
2026-05-08 18:22 40.37615 20.39914 24293 ft 441 kts 156°
2026-05-08 18:22 40.34857 20.41696 24648 ft 443 kts 156°
2026-05-08 18:23 40.32085 20.43489 24978 ft 444 kts 156°
2026-05-08 18:23 40.29308 20.45283 25301 ft 446 kts 156°
2026-05-08 18:23 40.26519 20.47081 25608 ft 447 kts 156°
2026-05-08 18:23 40.23759 20.48858 25938 ft 449 kts 156°
2026-05-08 18:24 40.20951 20.50667 26276 ft 451 kts 156°
2026-05-08 18:24 40.18136 20.52480 26621 ft 452 kts 156°
2026-05-08 18:24 40.15306 20.54302 26921 ft 454 kts 156°
2026-05-08 18:24 40.12467 20.56128 27215 ft 455 kts 156°
2026-05-08 18:25 40.09621 20.57952 27503 ft 456 kts 156°
2026-05-08 18:25 40.06765 20.59777 27813 ft 458 kts 156°
2026-05-08 18:25 40.03896 20.61581 28097 ft 459 kts 156°
2026-05-08 18:25 40.01000 20.63365 28384 ft 460 kts 157°
2026-05-08 18:26 39.98094 20.65123 28665 ft 462 kts 158°
2026-05-08 18:26 39.95164 20.66881 28882 ft 465 kts 158°
2026-05-08 18:26 39.92220 20.68651 29116 ft 467 kts 158°
2026-05-08 18:26 39.89264 20.70432 29371 ft 469 kts 158°
2026-05-08 18:27 39.86297 20.72225 29625 ft 471 kts 158°
2026-05-08 18:27 39.84321 20.73425 29786 ft 472 kts 158°
2026-05-08 18:27 39.80337 20.75850 30102 ft 474 kts 158°
2026-05-08 18:27 39.77342 20.77674 30316 ft 476 kts 158°
2026-05-08 18:28 39.74334 20.79501 30508 ft 478 kts 158°
2026-05-08 18:28 39.71309 20.81332 30686 ft 480 kts 158°
2026-05-08 18:28 39.68287 20.83189 30852 ft 483 kts 157°
2026-05-08 18:28 39.65290 20.85153 31078 ft 483 kts 156°
2026-05-08 18:29 39.62353 20.87177 31288 ft 484 kts 155°
2026-05-08 18:29 39.59352 20.89301 31527 ft 485 kts 155°
2026-05-08 18:29 39.56439 20.91371 31749 ft 485 kts 155°
2026-05-08 18:29 39.53465 20.93458 31961 ft 486 kts 155°
2026-05-08 18:30 39.50484 20.95519 32164 ft 486 kts 156°
2026-05-08 18:30 39.47495 20.97559 32387 ft 486 kts 156°
2026-05-08 18:30 39.44497 20.99588 32637 ft 486 kts 157°
2026-05-08 18:30 39.41499 21.01609 32870 ft 485 kts 157°
2026-05-08 18:31 39.38507 21.03626 33077 ft 485 kts 157°
2026-05-08 18:31 39.35516 21.05644 33277 ft 486 kts 157°
2026-05-08 18:31 39.32519 21.07670 33496 ft 486 kts 157°
2026-05-08 18:31 39.29520 21.09698 33713 ft 486 kts 157°
2026-05-08 18:32 39.26525 21.11729 33923 ft 486 kts 157°
2026-05-08 18:32 39.23535 21.13758 34116 ft 486 kts 157°
2026-05-08 18:32 39.20540 21.15787 34313 ft 486 kts 157°
2026-05-08 18:32 39.17540 21.17814 34517 ft 486 kts 157°
2026-05-08 18:33 39.14548 21.19830 34737 ft 485 kts 158°
2026-05-08 18:33 39.11557 21.21840 34948 ft 485 kts 158°
2026-05-08 18:33 39.08562 21.23852 35051 ft 484 kts 158°
2026-05-08 18:33 39.05587 21.25850 35070 ft 482 kts 158°
2026-05-08 18:34 38.99665 21.29828 35062 ft 480 kts 158°
2026-05-08 18:34 38.93729 21.33799 35063 ft 480 kts 158°
2026-05-08 18:35 38.87798 21.37765 35061 ft 481 kts 158°
2026-05-08 18:35 38.81866 21.41726 35066 ft 480 kts 158°
2026-05-08 18:36 38.75935 21.45676 35068 ft 481 kts 158°
2026-05-08 18:36 38.69987 21.49634 35068 ft 482 kts 158°
2026-05-08 18:37 38.64030 21.53589 35077 ft 482 kts 159°
2026-05-08 18:37 38.58112 21.57511 35071 ft 483 kts 159°
2026-05-08 18:38 38.52148 21.61448 35076 ft 483 kts 159°
2026-05-08 18:38 38.46179 21.65392 35084 ft 483 kts 159°
2026-05-08 18:39 38.40211 21.69326 35085 ft 483 kts 159°
2026-05-08 18:39 38.34237 21.73255 35082 ft 483 kts 159°
2026-05-08 18:40 38.28264 21.77169 35079 ft 483 kts 159°
2026-05-08 18:40 38.22282 21.81080 35079 ft 483 kts 159°
2026-05-08 18:41 38.16304 21.84995 35083 ft 483 kts 159°
2026-05-08 18:41 38.10325 21.88902 35076 ft 483 kts 159°
2026-05-08 18:42 38.04347 21.92795 35092 ft 483 kts 159°
2026-05-08 18:42 37.98367 21.96678 35096 ft 483 kts 159°
2026-05-08 18:43 37.92387 22.00559 35095 ft 483 kts 159°
2026-05-08 18:43 37.86415 22.04430 35097 ft 483 kts 159°
2026-05-08 18:44 37.80423 22.08306 35101 ft 483 kts 159°
2026-05-08 18:44 37.74448 22.12158 35106 ft 483 kts 159°
2026-05-08 18:45 37.68459 22.16024 35109 ft 483 kts 159°
2026-05-08 18:45 37.62483 22.19874 35118 ft 483 kts 160°
2026-05-08 18:46 37.56506 22.23711 35120 ft 482 kts 159°
2026-05-08 18:46 37.50565 22.27516 35130 ft 482 kts 160°
2026-05-08 18:47 37.44557 22.31361 35126 ft 481 kts 159°
2026-05-08 18:47 37.38799 22.35602 35132 ft 490 kts 147°
2026-05-08 18:48 37.33470 22.40971 35138 ft 490 kts 147°
2026-05-08 18:48 37.28849 22.45619 35143 ft 490 kts 147°
2026-05-08 18:49 37.23520 22.50962 35145 ft 490 kts 147°
2026-05-08 18:49 37.18191 22.56288 35146 ft 489 kts 147°
2026-05-08 18:50 37.12864 22.61590 35149 ft 489 kts 147°
2026-05-08 18:50 37.07540 22.66892 34533 ft 490 kts 147°
2026-05-08 18:51 37.04902 22.69524 33795 ft 480 kts 147°
2026-05-08 18:51 37.02329 22.72096 33492 ft 470 kts 147°
2026-05-08 18:51 36.99773 22.74646 32940 ft 469 kts 147°
2026-05-08 18:51 36.97226 22.77179 32428 ft 466 kts 147°
2026-05-08 18:52 36.94688 22.79691 31900 ft 464 kts 147°
2026-05-08 18:52 36.92168 22.82183 31390 ft 461 kts 147°
2026-05-08 18:52 36.89662 22.84661 30872 ft 458 kts 147°
2026-05-08 18:52 36.87176 22.87119 30375 ft 455 kts 147°
2026-05-08 18:53 36.84695 22.89567 29872 ft 452 kts 147°
2026-05-08 18:53 36.82273 22.91956 29395 ft 448 kts 147°
2026-05-08 18:53 36.79834 22.94365 28914 ft 445 kts 147°
2026-05-08 18:53 36.77415 22.96753 28450 ft 442 kts 147°
2026-05-08 18:54 36.75019 22.99118 27990 ft 438 kts 147°
2026-05-08 18:54 36.72646 23.01457 27540 ft 433 kts 147°
2026-05-08 18:54 36.70290 23.03774 27102 ft 429 kts 147°
2026-05-08 18:54 36.67961 23.06053 26676 ft 424 kts 147°
2026-05-08 18:55 36.63356 23.10568 25834 ft 418 kts 147°
2026-05-08 18:55 36.61080 23.12803 25400 ft 415 kts 147°
2026-05-08 18:55 36.58828 23.15012 25188 ft 411 kts 147°
2026-05-08 18:56 36.56579 23.17211 25186 ft 412 kts 147°
2026-05-08 18:56 36.54301 23.19430 24349 ft 422 kts 146°
2026-05-08 18:56 36.51989 23.21681 23715 ft 416 kts 146°
2026-05-08 18:56 36.49773 23.23857 23287 ft 401 kts 146°
2026-05-08 18:57 36.47595 23.25997 22821 ft 398 kts 146°
2026-05-08 18:57 36.46158 23.27403 22510 ft 396 kts 146°
2026-05-08 18:57 36.43278 23.30214 21892 ft 392 kts 146°
2026-05-08 18:57 36.41136 23.32298 21420 ft 389 kts 146°
2026-05-08 18:58 36.39010 23.34362 20963 ft 386 kts 146°
2026-05-08 18:58 36.36900 23.36406 20498 ft 384 kts 146°
2026-05-08 18:58 36.34802 23.38443 20040 ft 381 kts 146°
2026-05-08 18:58 36.32724 23.40460 19583 ft 378 kts 146°
2026-05-08 18:59 36.31354 23.41788 19286 ft 376 kts 146°
2026-05-08 18:59 36.29304 23.43774 18839 ft 373 kts 146°
2026-05-08 18:59 36.27236 23.45674 18425 ft 366 kts 153°
2026-05-08 18:59 36.24992 23.47060 18025 ft 355 kts 165°
2026-05-08 19:00 36.22651 23.47847 17627 ft 345 kts 175°
2026-05-08 19:00 36.20301 23.48320 17234 ft 340 kts 176°
2026-05-08 19:00 36.17980 23.48792 16855 ft 336 kts 176°
2026-05-08 19:00 36.15694 23.49262 16564 ft 329 kts 176°
2026-05-08 19:01 36.13475 23.49725 16370 ft 319 kts 176°
2026-05-08 19:01 36.11296 23.50173 16024 ft 315 kts 176°
2026-05-08 19:01 36.09141 23.50610 15627 ft 313 kts 176°
2026-05-08 19:01 36.06946 23.51048 14672 ft 325 kts 176°
2026-05-08 19:02 36.04673 23.51501 13296 ft 336 kts 176°
2026-05-08 19:02 36.02324 23.51969 11805 ft 348 kts 177°
2026-05-08 19:02 35.99903 23.52457 10232 ft 357 kts 176°
2026-05-08 19:02 35.97465 23.52959 9363 ft 344 kts 174°
2026-05-08 19:03 35.95208 23.53437 9111 ft 314 kts 174°
2026-05-08 19:03 35.93182 23.53865 8974 ft 286 kts 174°
2026-05-08 19:03 35.91304 23.54259 8791 ft 263 kts 174°
2026-05-08 19:03 35.89546 23.54623 8315 ft 252 kts 174°
2026-05-08 19:04 35.87825 23.54971 7565 ft 252 kts 174°
2026-05-08 19:04 35.86081 23.55315 6787 ft 253 kts 174°
2026-05-08 19:04 35.84359 23.55659 6112 ft 249 kts 173°
2026-05-08 19:04 35.82667 23.56000 5431 ft 245 kts 173°
2026-05-08 19:05 35.81003 23.56337 4771 ft 240 kts 172°
2026-05-08 19:05 35.79372 23.56666 4108 ft 235 kts 172°
2026-05-08 19:05 35.77767 23.56990 3517 ft 230 kts 171°
2026-05-08 19:05 35.76196 23.57310 3385 ft 230 kts 171°
2026-05-08 19:06 35.74618 23.57631 3373 ft 230 kts 171°
2026-05-08 19:06 35.73035 23.57953 3372 ft 230 kts 171°
2026-05-08 19:06 35.71471 23.58371 3370 ft 231 kts 159°
2026-05-08 19:06 35.70147 23.59464 3365 ft 233 kts 134°
2026-05-08 19:07 35.69382 23.61137 3363 ft 221 kts 113°
2026-05-08 19:07 35.68869 23.62906 3353 ft 218 kts 113°
2026-05-08 19:07 35.68358 23.64662 3348 ft 218 kts 113°
2026-05-08 19:07 35.67846 23.66411 3360 ft 217 kts 113°
2026-05-08 19:08 35.67338 23.68153 3346 ft 217 kts 113°
2026-05-08 19:08 35.66832 23.69890 3350 ft 215 kts 113°
2026-05-08 19:08 35.66325 23.71629 3329 ft 216 kts 113°
2026-05-08 19:08 35.65824 23.73346 3347 ft 217 kts 113°
2026-05-08 19:09 35.65306 23.75113 3328 ft 216 kts 111°
2026-05-08 19:09 35.64795 23.76861 3333 ft 217 kts 113°
2026-05-08 19:09 35.64280 23.78617 3333 ft 226 kts 113°
2026-05-08 19:09 35.63747 23.80435 3340 ft 224 kts 113°
2026-05-08 19:10 35.63225 23.82222 3327 ft 221 kts 113°
2026-05-08 19:10 35.62707 23.83997 3320 ft 221 kts 113°
2026-05-08 19:10 35.62188 23.85774 3317 ft 221 kts 113°
2026-05-08 19:10 35.61665 23.87548 3316 ft 221 kts 113°
2026-05-08 19:11 35.61141 23.89321 3315 ft 221 kts 113°
2026-05-08 19:11 35.60618 23.91101 3315 ft 221 kts 113°
2026-05-08 19:11 35.60110 23.92834 3300 ft 200 kts 114°
2026-05-08 19:11 35.59685 23.94307 3293 ft 172 kts 114°
2026-05-08 19:12 35.59286 23.95664 3301 ft 167 kts 114°
2026-05-08 19:12 35.58887 23.97005 3305 ft 167 kts 115°
2026-05-08 19:12 35.58504 23.98307 3318 ft 153 kts 114°
2026-05-08 19:12 35.58153 23.99504 3310 ft 148 kts 116°
2026-05-08 19:13 35.57805 24.00723 2879 ft 160 kts 113°
2026-05-08 19:13 35.57393 24.02021 2367 ft 159 kts 116°
2026-05-08 19:13 35.56977 24.03209 2334 ft 148 kts 112°
2026-05-08 19:13 35.56602 24.04362 2330 ft 144 kts 112°
2026-05-08 19:14 35.56221 24.05522 1989 ft 151 kts 111°
2026-05-08 19:14 35.55806 24.06725 1528 ft 154 kts 112°
2026-05-08 19:14 35.55412 24.07927 1232 ft 150 kts 109°
2026-05-08 19:14 35.55058 24.09113 1142 ft 148 kts 109°
2026-05-08 19:15 35.54716 24.10312 1039 ft 149 kts 111°
2026-05-08 19:15 35.54336 24.11490 875 ft 148 kts 114°
2026-05-08 19:15 35.53926 24.12653 713 ft 148 kts 114°
2026-05-08 19:15 35.53540 24.13818 562 ft 147 kts 110°
2026-05-08 19:16 35.53196 24.14955 487 ft 132 kts 110°
2026-05-08 19:16 35.52921 24.15832 493 ft 75 kts 112°
2026-05-08 19:16 35.52770 24.16284 499 ft 41 kts 112°
2026-05-08 19:16 35.52671 24.16581 490 ft 34 kts 112°
2026-05-08 19:17 35.52610 24.16778 498 ft 6 kts 92°
2026-05-08 19:17 35.52613 24.16815 498 ft 3 kts 73°
2026-05-08 19:17 35.52621 24.16839 498 ft 3 kts 64°
2026-05-08 19:17 35.52642 24.16860 498 ft 5 kts 36°
2026-05-08 19:18 35.52678 24.16875 492 ft 6 kts
2026-05-08 19:18 35.52726 24.16866 498 ft 8 kts 333°
2026-05-08 19:18 35.52762 24.16811 490 ft 9 kts 298°
2026-05-08 19:18 35.52790 24.16736 496 ft 10 kts 292°
2026-05-08 19:19 35.52818 24.16649 491 ft 12 kts 291°
2026-05-08 19:19 35.52850 24.16550 490 ft 13 kts 291°
2026-05-08 19:19 35.52883 24.16443 498 ft 14 kts 290°
2026-05-08 19:19 35.52919 24.16325 491 ft 15 kts 290°
2026-05-08 19:20 35.52957 24.16198 488 ft 16 kts 290°
2026-05-08 19:20 35.52984 24.16107 498 ft 17 kts 290°
2026-05-08 19:20 35.53046 24.15923 496 ft 18 kts 294°
2026-05-08 19:20 35.53099 24.15779 495 ft 19 kts 295°
2026-05-08 19:21 35.53152 24.15626 490 ft 20 kts 292°
2026-05-08 19:21 35.53207 24.15467 494 ft 20 kts 292°
2026-05-08 19:21 35.53254 24.15300 490 ft 21 kts 285°
2026-05-08 19:21 35.53306 24.15131 491 ft 21 kts 293°
2026-05-08 19:22 35.53367 24.14963 490 ft 22 kts 293°
2026-05-08 19:22 35.53419 24.14785 494 ft 22 kts 289°
2026-05-08 19:22 35.53473 24.14604 490 ft 23 kts 290°
2026-05-08 19:22 35.53525 24.14433 498 ft 17 kts 290°
2026-05-08 19:23 35.53611 24.14354 498 ft 17 kts
2026-05-08 19:23 35.53694 24.14329 491 ft 13 kts 309°
2026-05-08 19:23 35.53732 24.14224 498 ft 14 kts 289°
2026-05-08 19:23 35.53757 24.14136 489 ft 8 kts 290°
2026-05-08 19:24 35.53803 24.14111 498 ft 9 kts 13°
2026-05-08 19:24 35.53842 24.14126 498 ft 0 kts 20°
2026-05-08 19:24 35.53848 24.14129 498 ft 2 kts 22°
2026-05-08 19:24 35.53850 24.14130 498 ft 0 kts 22°